Time,TemperatureF,DewpointF,PressureIn,WindDirection,WindDirectionDegrees,WindSpeedMPH,WindSpeedGustMPH,Humidity,HourlyPrecipIn,Conditions,Clouds,dailyrainin,SoftwareType,DateUTC
2013-01-30 00:00:00,40.1,37.4,30.30,East,99,0.0,0.0,90,0.00,,---,0.00,VWS V14.01,2013-01-30 08:00:00,
2013-01-30 00:03:00,40.2,37.5,30.30,East,98,0.0,1.0,90,0.00,,---,0.00,VWS V14.01,2013-01-30 08:03:00,
2013-01-30 00:08:00,40.3,37.6,30.30,East,98,0.0,1.0,90,0.00,,---,0.00,VWS V14.01,2013-01-30 08:08:00,
2013-01-30 00:10:00,40.3,37.6,30.30,East,99,0.0,1.0,90,0.00,,---,0.00,VWS V14.01,2013-01-30 08:10:00,
2013-01-30 00:13:00,40.3,37.3,30.30,East,99,0.0,0.0,89,0.00,,---,0.00,VWS V14.01,2013-01-30 08:13:00,
2013-01-30 00:18:00,40.1,37.1,30.30,East,99,0.0,0.0,89,0.00,,---,0.00,VWS V14.01,2013-01-30 08:18:00,
2013-01-30 00:20:00,40.1,37.1,30.30,East,98,0.0,0.0,89,0.00,,---,0.00,VWS V14.01,2013-01-30 08:20:00,
2013-01-30 00:23:00,40.0,37.3,30.30,East,98,0.0,0.0,90,0.00,,---,0.00,VWS V14.01,2013-01-30 08:23:00,
2013-01-30 00:28:00,39.9,37.2,30.30,East,99,0.0,0.0,90,0.00,,---,0.00,VWS V14.01,2013-01-30 08:28:00,
2013-01-30 00:30:00,39.9,37.2,30.30,East,99,0.0,0.0,90,0.00,,---,0.00,VWS V14.01,2013-01-30 08:30:00,
2013-01-30 00:33:00,39.7,37.0,30.30,East,98,0.0,0.0,90,0.00,,---,0.00,VWS V14.01,2013-01-30 08:33:00,
2013-01-30 00:38:00,39.6,36.9,30.30,East,99,0.0,0.0,90,0.00,,---,0.00,VWS V14.01,2013-01-30 08:38:00,
2013-01-30 00:40:00,39.6,36.9,30.30,East,98,0.0,0.0,90,0.00,,---,0.00,VWS V14.01,2013-01-30 08:40:00,
2013-01-30 00:43:00,39.5,36.8,30.30,East,99,0.0,0.0,90,0.00,,---,0.00,VWS V14.01,2013-01-30 08:43:00,
2013-01-30 00:48:00,39.3,36.6,30.30,East,98,0.0,0.0,90,0.00,,---,0.00,VWS V14.01,2013-01-30 08:48:00,
2013-01-30 00:50:00,39.3,36.6,30.30,East,99,0.0,0.0,90,0.00,,---,0.00,VWS V14.01,2013-01-30 08:50:00,
2013-01-30 00:53:00,39.2,36.5,30.30,East,99,0.0,0.0,90,0.00,,---,0.00,VWS V14.01,2013-01-30 08:53:00,
2013-01-30 00:58:00,39.0,36.6,30.29,East,99,0.0,0.0,91,0.00,,---,0.00,VWS V14.01,2013-01-30 08:58:00,
2013-01-30 01:00:00,39.0,36.6,30.29,East,98,0.0,0.0,91,0.00,,---,0.00,VWS V14.01,2013-01-30 09:00:00,
2013-01-30 01:03:00,38.9,36.5,30.29,East,99,0.0,0.0,91,0.00,,---,0.00,VWS V14.01,2013-01-30 09:03:00,
2013-01-30 01:08:00,38.7,36.3,30.29,East,98,0.0,0.0,91,0.00,,---,0.00,VWS V14.01,2013-01-30 09:08:00,
2013-01-30 01:10:00,38.7,36.3,30.29,East,98,0.0,0.0,91,0.00,,---,0.00,VWS V14.01,2013-01-30 09:10:00,
2013-01-30 01:13:00,38.6,36.2,30.29,East,99,0.0,0.0,91,0.00,,---,0.00,VWS V14.01,2013-01-30 09:13:00,
2013-01-30 01:18:00,38.4,36.3,30.29,East,98,0.0,0.0,92,0.00,,---,0.00,VWS V14.01,2013-01-30 09:18:00,
2013-01-30 01:20:00,38.4,36.3,30.29,East,98,0.0,0.0,92,0.00,,---,0.00,VWS V14.01,2013-01-30 09:20:00,
2013-01-30 01:23:00,38.4,36.3,30.29,East,99,0.0,0.0,92,0.00,,---,0.00,VWS V14.01,2013-01-30 09:23:00,
2013-01-30 01:28:00,38.3,36.2,30.29,East,99,0.0,0.0,92,0.00,,---,0.00,VWS V14.01,2013-01-30 09:28:00,
2013-01-30 01:30:00,38.3,36.2,30.30,East,99,0.0,0.0,92,0.00,,---,0.00,VWS V14.01,2013-01-30 09:30:00,
2013-01-30 01:33:00,38.2,36.1,30.29,East,98,0.0,0.0,92,0.00,,---,0.00,VWS V14.01,2013-01-30 09:33:00,
2013-01-30 01:38:00,38.1,36.0,30.29,East,99,0.0,0.0,92,0.00,,---,0.00,VWS V14.01,2013-01-30 09:38:00,
2013-01-30 01:40:00,38.1,36.0,30.29,East,99,0.0,0.0,92,0.00,,---,0.00,VWS V14.01,2013-01-30 09:40:00,
2013-01-30 01:43:00,38.0,35.9,30.30,East,99,0.0,1.0,92,0.00,,---,0.00,VWS V14.01,2013-01-30 09:43:00,
2013-01-30 01:48:00,38.0,35.9,30.29,East,98,0.0,1.0,92,0.00,,---,0.00,VWS V14.01,2013-01-30 09:48:00,
2013-01-30 01:50:00,37.9,35.8,30.29,East,99,0.0,1.0,92,0.00,,---,0.00,VWS V14.01,2013-01-30 09:50:00,
2013-01-30 01:53:00,37.9,35.8,30.29,East,98,0.0,0.0,92,0.00,,---,0.00,VWS V14.01,2013-01-30 09:53:00,
2013-01-30 01:58:00,37.8,35.7,30.30,East,99,0.0,1.0,92,0.00,,---,0.00,VWS V14.01,2013-01-30 09:58:00,
2013-01-30 02:00:00,37.8,35.7,30.30,East,99,0.0,1.0,92,0.00,,---,0.00,VWS V14.01,2013-01-30 10:00:00,
2013-01-30 02:03:00,37.7,35.6,30.30,East,98,0.0,0.0,92,0.00,,---,0.00,VWS V14.01,2013-01-30 10:03:00,
2013-01-30 02:08:00,37.7,35.9,30.29,East,98,0.0,0.0,93,0.00,,---,0.00,VWS V14.01,2013-01-30 10:08:00,
2013-01-30 02:10:00,37.0,35.2,30.29,East,99,0.0,0.0,93,0.00,,---,0.00,VWS V14.01,2013-01-30 10:10:00,
2013-01-30 02:13:00,37.7,35.9,30.29,East,99,0.0,0.0,93,0.00,,---,0.00,VWS V14.01,2013-01-30 10:13:00,
2013-01-30 02:18:00,37.7,35.9,30.29,East,99,0.0,0.0,93,0.00,,---,0.00,VWS V14.01,2013-01-30 10:18:00,
2013-01-30 02:20:00,37.7,35.9,30.29,East,99,0.0,1.0,93,0.00,,---,0.00,VWS V14.01,2013-01-30 10:20:00,
2013-01-30 02:23:00,37.6,35.8,30.28,East,98,0.0,0.0,93,0.00,,---,0.00,VWS V14.01,2013-01-30 10:23:00,
2013-01-30 02:28:00,37.5,35.7,30.29,East,98,0.0,0.0,93,0.00,,---,0.00,VWS V14.01,2013-01-30 10:28:00,
2013-01-30 02:30:00,37.5,35.7,30.29,East,98,0.0,0.0,93,0.00,,---,0.00,VWS V14.01,2013-01-30 10:30:00,
2013-01-30 02:33:00,37.5,35.7,30.29,East,99,0.0,0.0,93,0.00,,---,0.00,VWS V14.01,2013-01-30 10:33:00,
2013-01-30 02:38:00,37.5,35.7,30.29,East,99,0.0,0.0,93,0.00,,---,0.00,VWS V14.01,2013-01-30 10:38:00,
2013-01-30 02:40:00,37.5,35.7,30.29,East,99,0.0,0.0,93,0.00,,---,0.00,VWS V14.01,2013-01-30 10:40:00,
2013-01-30 02:43:00,37.4,35.6,30.29,East,99,0.0,0.0,93,0.00,,---,0.00,VWS V14.01,2013-01-30 10:43:00,
2013-01-30 02:48:00,37.4,35.6,30.29,East,99,0.0,0.0,93,0.00,,---,0.00,VWS V14.01,2013-01-30 10:48:00,
2013-01-30 02:50:00,37.3,35.5,30.29,East,99,0.0,0.0,93,0.00,,---,0.00,VWS V14.01,2013-01-30 10:50:00,
2013-01-30 02:53:00,37.3,35.5,30.29,East,98,0.0,0.0,93,0.00,,---,0.00,VWS V14.01,2013-01-30 10:53:00,
2013-01-30 02:58:00,37.2,35.4,30.29,East,98,0.0,0.0,93,0.00,,---,0.00,VWS V14.01,2013-01-30 10:58:00,
2013-01-30 03:00:00,37.2,35.4,30.29,East,99,0.0,0.0,93,0.00,,---,0.00,VWS V14.01,2013-01-30 11:00:00,
2013-01-30 03:03:00,37.1,35.3,30.29,East,99,0.0,0.0,93,0.00,,---,0.00,VWS V14.01,2013-01-30 11:03:00,
2013-01-30 03:08:00,37.1,35.3,30.29,East,99,0.0,0.0,93,0.00,,---,0.00,VWS V14.01,2013-01-30 11:08:00,
2013-01-30 03:10:00,37.0,35.2,30.29,East,99,0.0,0.0,93,0.00,,---,0.00,VWS V14.01,2013-01-30 11:10:00,
2013-01-30 03:13:00,37.0,35.2,30.29,East,99,0.0,0.0,93,0.00,,---,0.00,VWS V14.01,2013-01-30 11:13:00,
2013-01-30 03:18:00,36.9,35.1,30.29,East,99,0.0,0.0,93,0.00,,---,0.00,VWS V14.01,2013-01-30 11:18:00,
2013-01-30 03:20:00,36.9,35.1,30.29,East,99,0.0,0.0,93,0.00,,---,0.00,VWS V14.01,2013-01-30 11:20:00,
2013-01-30 03:23:00,36.8,35.0,30.29,East,99,0.0,0.0,93,0.00,,---,0.00,VWS V14.01,2013-01-30 11:23:00,
2013-01-30 03:28:00,36.7,34.9,30.29,East,99,0.0,0.0,93,0.00,,---,0.00,VWS V14.01,2013-01-30 11:28:00,
2013-01-30 03:30:00,36.6,34.8,30.29,East,99,0.0,0.0,93,0.00,,---,0.00,VWS V14.01,2013-01-30 11:30:00,
2013-01-30 03:33:00,36.6,34.8,30.29,East,99,0.0,0.0,93,0.00,,---,0.00,VWS V14.01,2013-01-30 11:33:00,
2013-01-30 03:38:00,36.5,34.9,30.29,East,99,0.0,1.0,94,0.00,,---,0.00,VWS V14.01,2013-01-30 11:38:00,
2013-01-30 03:40:00,36.5,34.9,30.29,East,98,1.0,1.0,94,0.00,,---,0.00,VWS V14.01,2013-01-30 11:40:00,
2013-01-30 03:43:00,36.4,34.6,30.29,East,99,0.0,1.0,93,0.00,,---,0.00,VWS V14.01,2013-01-30 11:43:00,
2013-01-30 03:48:00,36.3,34.7,30.29,East,98,0.0,1.0,94,0.00,,---,0.00,VWS V14.01,2013-01-30 11:48:00,
2013-01-30 03:50:00,36.3,34.7,30.29,East,98,0.0,1.0,94,0.00,,---,0.00,VWS V14.01,2013-01-30 11:50:00,
2013-01-30 03:53:00,36.3,34.7,30.29,East,99,0.0,1.0,94,0.00,,---,0.00,VWS V14.01,2013-01-30 11:53:00,
2013-01-30 03:58:00,36.2,34.6,30.29,East,99,0.0,1.0,94,0.00,,---,0.00,VWS V14.01,2013-01-30 11:58:00,
2013-01-30 04:00:00,36.2,34.6,30.29,East,99,0.0,1.0,94,0.00,,---,0.00,VWS V14.01,2013-01-30 12:00:00,
2013-01-30 04:03:00,36.1,34.5,30.29,East,98,0.0,0.0,94,0.00,,---,0.00,VWS V14.01,2013-01-30 12:03:00,
2013-01-30 04:08:00,36.1,34.5,30.28,East,98,0.0,0.0,94,0.00,,---,0.00,VWS V14.01,2013-01-30 12:08:00,
2013-01-30 04:10:00,36.1,34.5,30.28,East,99,0.0,0.0,94,0.00,,---,0.00,VWS V14.01,2013-01-30 12:10:00,
2013-01-30 04:13:00,36.0,34.4,30.28,East,99,0.0,0.0,94,0.00,,---,0.00,VWS V14.01,2013-01-30 12:13:00,
2013-01-30 04:18:00,36.0,34.4,30.28,East,98,0.0,0.0,94,0.00,,---,0.00,VWS V14.01,2013-01-30 12:18:00,
2013-01-30 04:20:00,35.9,34.3,30.28,East,99,0.0,0.0,94,0.00,,---,0.00,VWS V14.01,2013-01-30 12:20:00,
2013-01-30 04:23:00,35.8,34.2,30.29,East,99,0.0,0.0,94,0.00,,---,0.00,VWS V14.01,2013-01-30 12:23:00,
2013-01-30 04:28:00,35.8,34.2,30.28,East,99,0.0,0.0,94,0.00,,---,0.00,VWS V14.01,2013-01-30 12:28:00,
2013-01-30 04:30:00,35.8,34.2,30.28,East,99,0.0,0.0,94,0.00,,---,0.00,VWS V14.01,2013-01-30 12:30:00,
2013-01-30 04:33:00,35.8,34.2,30.29,East,98,0.0,0.0,94,0.00,,---,0.00,VWS V14.01,2013-01-30 12:33:00,
2013-01-30 04:38:00,35.8,34.2,30.28,East,99,0.0,1.0,94,0.00,,---,0.00,VWS V14.01,2013-01-30 12:38:00,
2013-01-30 04:40:00,35.8,34.2,30.28,East,99,0.0,1.0,94,0.00,,---,0.00,VWS V14.01,2013-01-30 12:40:00,
2013-01-30 04:43:00,35.9,34.3,30.28,East,99,0.0,0.0,94,0.00,,---,0.00,VWS V14.01,2013-01-30 12:43:00,
2013-01-30 04:48:00,35.9,34.3,30.29,East,98,0.0,0.0,94,0.00,,---,0.00,VWS V14.01,2013-01-30 12:48:00,
2013-01-30 04:50:00,35.9,34.3,30.29,East,99,0.0,0.0,94,0.00,,---,0.00,VWS V14.01,2013-01-30 12:50:00,
2013-01-30 04:53:00,36.0,34.7,30.29,East,98,0.0,1.0,95,0.00,,---,0.00,VWS V14.01,2013-01-30 12:53:00,
2013-01-30 04:58:00,36.1,34.8,30.29,East,99,0.0,1.0,95,0.00,,---,0.00,VWS V14.01,2013-01-30 12:58:00,
2013-01-30 05:00:00,36.1,34.5,30.29,East,98,0.0,1.0,94,0.00,,---,0.00,VWS V14.01,2013-01-30 13:00:00,
2013-01-30 05:03:00,36.0,34.7,30.29,East,99,0.0,0.0,95,0.00,,---,0.00,VWS V14.01,2013-01-30 13:03:00,
2013-01-30 05:08:00,36.0,34.4,30.29,East,99,0.0,0.0,94,0.00,,---,0.00,VWS V14.01,2013-01-30 13:08:00,
2013-01-30 05:10:00,35.9,34.3,30.29,East,99,0.0,0.0,94,0.00,,---,0.00,VWS V14.01,2013-01-30 13:10:00,
2013-01-30 05:13:00,35.8,34.2,30.29,East,99,0.0,0.0,94,0.00,,---,0.00,VWS V14.01,2013-01-30 13:13:00,
2013-01-30 05:18:00,35.7,34.2,30.29,East,99,0.0,0.0,94,0.00,,---,0.00,VWS V14.01,2013-01-30 13:18:00,
2013-01-30 05:20:00,35.6,34.0,30.29,East,99,0.0,0.0,94,0.00,,---,0.00,VWS V14.01,2013-01-30 13:20:00,
2013-01-30 05:23:00,35.6,34.0,30.29,East,99,0.0,0.0,94,0.00,,---,0.00,VWS V14.01,2013-01-30 13:23:00,
2013-01-30 05:28:00,35.5,34.0,30.29,East,99,0.0,0.0,94,0.00,,---,0.00,VWS V14.01,2013-01-30 13:28:00,
2013-01-30 05:30:00,35.4,33.8,30.29,East,99,0.0,0.0,94,0.00,,---,0.00,VWS V14.01,2013-01-30 13:30:00,
2013-01-30 05:33:00,35.3,33.8,30.30,East,99,0.0,0.0,94,0.00,,---,0.00,VWS V14.01,2013-01-30 13:33:00,
2013-01-30 05:38:00,35.3,33.8,30.30,East,99,0.0,0.0,94,0.00,,---,0.00,VWS V14.01,2013-01-30 13:38:00,
2013-01-30 05:40:00,35.3,33.8,30.30,East,99,0.0,0.0,94,0.00,,---,0.00,VWS V14.01,2013-01-30 13:40:00,
2013-01-30 05:43:00,35.3,34.0,30.30,East,99,0.0,0.0,95,0.00,,---,0.00,VWS V14.01,2013-01-30 13:43:00,
2013-01-30 05:48:00,35.2,33.9,30.30,East,99,0.0,0.0,95,0.00,,---,0.00,VWS V14.01,2013-01-30 13:48:00,
2013-01-30 05:50:00,35.2,33.9,30.30,East,98,0.0,0.0,95,0.00,,---,0.00,VWS V14.01,2013-01-30 13:50:00,
2013-01-30 05:53:00,35.2,33.9,30.30,East,98,0.0,0.0,95,0.00,,---,0.00,VWS V14.01,2013-01-30 13:53:00,
2013-01-30 05:58:00,35.1,33.8,30.30,East,99,0.0,0.0,95,0.00,,---,0.00,VWS V14.01,2013-01-30 13:58:00,
2013-01-30 06:00:00,35.1,33.8,30.30,East,98,0.0,0.0,95,0.00,,---,0.00,VWS V14.01,2013-01-30 14:00:00,
2013-01-30 06:03:00,35.1,33.8,30.30,East,99,0.0,0.0,95,0.00,,---,0.00,VWS V14.01,2013-01-30 14:03:00,
2013-01-30 06:08:00,35.1,33.8,30.31,East,99,0.0,0.0,95,0.00,,---,0.00,VWS V14.01,2013-01-30 14:08:00,
2013-01-30 06:10:00,35.1,33.8,30.31,East,99,0.0,0.0,95,0.00,,---,0.00,VWS V14.01,2013-01-30 14:10:00,
2013-01-30 06:13:00,35.0,33.7,30.31,East,99,0.0,0.0,95,0.00,,---,0.00,VWS V14.01,2013-01-30 14:13:00,
2013-01-30 06:18:00,35.2,33.9,30.31,East,99,1.0,1.0,95,0.00,,---,0.00,VWS V14.01,2013-01-30 14:18:00,
2013-01-30 06:20:00,35.2,33.9,30.31,East,98,1.0,1.0,95,0.00,,---,0.00,VWS V14.01,2013-01-30 14:20:00,
2013-01-30 06:23:00,35.4,34.1,30.31,East,98,0.0,1.0,95,0.00,,---,0.00,VWS V14.01,2013-01-30 14:23:00,
2013-01-30 06:28:00,35.6,34.3,30.31,East,98,0.0,1.0,95,0.00,,---,0.00,VWS V14.01,2013-01-30 14:28:00,
2013-01-30 06:30:00,35.6,34.3,30.31,East,99,0.0,1.0,95,0.00,,---,0.00,VWS V14.01,2013-01-30 14:30:00,
2013-01-30 06:33:00,35.6,34.3,30.31,East,98,0.0,0.0,95,0.00,,---,0.00,VWS V14.01,2013-01-30 14:33:00,
2013-01-30 06:38:00,35.5,34.2,30.31,East,98,0.0,0.0,95,0.00,,---,0.00,VWS V14.01,2013-01-30 14:38:00,
2013-01-30 06:40:00,35.5,34.2,30.31,East,99,0.0,0.0,95,0.00,,---,0.00,VWS V14.01,2013-01-30 14:40:00,
2013-01-30 06:43:00,35.3,34.0,30.31,East,98,0.0,0.0,95,0.00,,---,0.00,VWS V14.01,2013-01-30 14:43:00,
2013-01-30 06:48:00,35.2,33.9,30.32,East,99,0.0,0.0,95,0.00,,---,0.00,VWS V14.01,2013-01-30 14:48:00,
2013-01-30 06:50:00,35.1,33.8,30.32,East,99,0.0,0.0,95,0.00,,---,0.00,VWS V14.01,2013-01-30 14:50:00,
2013-01-30 06:53:00,35.1,33.8,30.32,East,99,0.0,0.0,95,0.00,,---,0.00,VWS V14.01,2013-01-30 14:53:00,
2013-01-30 06:58:00,35.1,33.8,30.32,East,99,0.0,0.0,95,0.00,,---,0.00,VWS V14.01,2013-01-30 14:58:00,
2013-01-30 07:00:00,35.1,33.8,30.32,East,98,0.0,0.0,95,0.00,,---,0.00,VWS V14.01,2013-01-30 15:00:00,
2013-01-30 07:03:00,35.1,33.8,30.32,East,99,0.0,0.0,95,0.00,,---,0.00,VWS V14.01,2013-01-30 15:03:00,
2013-01-30 07:08:00,35.1,33.8,30.32,East,99,0.0,0.0,95,0.00,,---,0.00,VWS V14.01,2013-01-30 15:08:00,
2013-01-30 07:10:00,35.1,33.8,30.32,East,98,0.0,0.0,95,0.00,,---,0.00,VWS V14.01,2013-01-30 15:10:00,
2013-01-30 07:13:00,35.0,33.7,30.32,East,98,0.0,0.0,95,0.00,,---,0.00,VWS V14.01,2013-01-30 15:13:00,
2013-01-30 07:18:00,35.0,33.7,30.32,East,99,0.0,0.0,95,0.00,,---,0.00,VWS V14.01,2013-01-30 15:18:00,
2013-01-30 07:20:00,35.0,33.7,30.32,East,99,0.0,0.0,95,0.00,,---,0.00,VWS V14.01,2013-01-30 15:20:00,
2013-01-30 07:23:00,34.9,33.6,30.32,East,99,0.0,0.0,95,0.00,,---,0.00,VWS V14.01,2013-01-30 15:23:00,
2013-01-30 07:28:00,34.9,33.6,30.32,East,98,0.0,0.0,95,0.00,,---,0.00,VWS V14.01,2013-01-30 15:28:00,
2013-01-30 07:30:00,34.9,33.6,30.32,East,99,0.0,0.0,95,0.00,,---,0.00,VWS V14.01,2013-01-30 15:30:00,
2013-01-30 07:33:00,35.0,33.7,30.33,East,99,0.0,0.0,95,0.00,,---,0.00,VWS V14.01,2013-01-30 15:33:00,
2013-01-30 07:38:00,35.0,33.7,30.33,East,99,0.0,0.0,95,0.00,,---,0.00,VWS V14.01,2013-01-30 15:38:00,
2013-01-30 07:40:00,34.9,33.6,30.33,East,99,0.0,0.0,95,0.00,,---,0.00,VWS V14.01,2013-01-30 15:40:00,
2013-01-30 07:43:00,35.0,33.7,30.33,East,99,0.0,0.0,95,0.00,,---,0.00,VWS V14.01,2013-01-30 15:43:00,
2013-01-30 07:48:00,35.0,33.7,30.33,East,99,0.0,0.0,95,0.00,,---,0.00,VWS V14.01,2013-01-30 15:48:00,
2013-01-30 07:50:00,35.1,33.8,30.33,East,98,0.0,0.0,95,0.00,,---,0.00,VWS V14.01,2013-01-30 15:50:00,
2013-01-30 07:53:00,35.1,33.8,30.33,East,99,0.0,0.0,95,0.00,,---,0.00,VWS V14.01,2013-01-30 15:53:00,
2013-01-30 07:58:00,35.7,34.7,30.33,East,98,0.0,0.0,96,0.00,,---,0.00,VWS V14.01,2013-01-30 15:58:00,
2013-01-30 08:00:00,35.8,34.8,30.33,East,99,0.0,0.0,96,0.00,,---,0.00,VWS V14.01,2013-01-30 16:00:00,
2013-01-30 08:03:00,36.3,35.5,30.33,East,99,0.0,0.0,97,0.00,,---,0.00,VWS V14.01,2013-01-30 16:03:00,
2013-01-30 08:08:00,37.0,36.2,30.33,East,99,0.0,0.0,97,0.00,,---,0.00,VWS V14.01,2013-01-30 16:08:00,
2013-01-30 08:10:00,37.2,36.4,30.34,East,99,0.0,0.0,97,0.00,,---,0.00,VWS V14.01,2013-01-30 16:10:00,
2013-01-30 08:13:00,37.9,37.1,30.34,East,99,0.0,0.0,97,0.00,,---,0.00,VWS V14.01,2013-01-30 16:13:00,
2013-01-30 08:18:00,38.7,37.9,30.34,East,99,0.0,1.0,97,0.00,,---,0.00,VWS V14.01,2013-01-30 16:18:00,
2013-01-30 08:20:00,38.9,38.1,30.34,East,98,0.0,1.0,97,0.00,,---,0.00,VWS V14.01,2013-01-30 16:20:00,
2013-01-30 08:23:00,39.7,38.9,30.34,East,99,0.0,1.0,97,0.00,,---,0.00,VWS V14.01,2013-01-30 16:23:00,
2013-01-30 08:28:00,40.3,39.2,30.35,East,98,0.0,1.0,96,0.00,,---,0.00,VWS V14.01,2013-01-30 16:28:00,
2013-01-30 08:30:00,40.4,39.3,30.35,East,99,0.0,1.0,96,0.00,,---,0.00,VWS V14.01,2013-01-30 16:30:00,
2013-01-30 08:33:00,40.8,39.2,30.35,East,99,1.0,1.0,94,0.00,,---,0.00,VWS V14.01,2013-01-30 16:33:00,
2013-01-30 08:38:00,41.8,39.9,30.35,East,99,1.0,1.0,93,0.00,,---,0.00,VWS V14.01,2013-01-30 16:38:00,
2013-01-30 08:40:00,42.0,39.8,30.35,East,98,0.0,1.0,92,0.00,,---,0.00,VWS V14.01,2013-01-30 16:40:00,
2013-01-30 08:43:00,42.7,40.0,30.35,SSW,210,0.0,2.0,90,0.00,,---,0.00,VWS V14.01,2013-01-30 16:43:00,
2013-01-30 08:48:00,43.7,40.1,30.35,SSW,197,0.0,3.0,87,0.00,,---,0.00,VWS V14.01,2013-01-30 16:48:00,
2013-01-30 08:50:00,43.8,40.2,30.35,SW,221,1.0,3.0,87,0.00,,---,0.00,VWS V14.01,2013-01-30 16:50:00,
2013-01-30 08:53:00,44.2,40.3,30.35,SSW,212,0.0,1.0,86,0.00,,---,0.00,VWS V14.01,2013-01-30 16:53:00,
2013-01-30 08:58:00,44.7,40.2,30.35,SSW,210,3.0,5.0,84,0.00,,---,0.00,VWS V14.01,2013-01-30 16:58:00,
2013-01-30 09:00:00,44.9,40.1,30.35,South,177,1.0,5.0,83,0.00,,---,0.00,VWS V14.01,2013-01-30 17:00:00,
2013-01-30 09:03:00,45.4,40.5,30.35,SSW,193,1.0,2.0,83,0.00,,---,0.00,VWS V14.01,2013-01-30 17:03:00,
2013-01-30 09:08:00,45.9,40.7,30.35,South,177,0.0,3.0,82,0.00,,---,0.00,VWS V14.01,2013-01-30 17:08:00,
2013-01-30 09:10:00,46.0,40.5,30.35,SW,225,3.0,4.0,81,0.00,,---,0.00,VWS V14.01,2013-01-30 17:10:00,
2013-01-30 09:13:00,46.4,40.9,30.35,NE,41,0.0,3.0,81,0.00,,---,0.00,VWS V14.01,2013-01-30 17:13:00,
2013-01-30 09:18:00,46.9,40.7,30.35,SSW,204,1.0,3.0,79,0.00,,---,0.00,VWS V14.01,2013-01-30 17:18:00,
2013-01-30 09:20:00,47.1,40.9,30.35,SSW,210,2.0,3.0,79,0.00,,---,0.00,VWS V14.01,2013-01-30 17:20:00,
2013-01-30 09:23:00,47.6,41.1,30.35,SW,214,3.0,3.0,78,0.00,,---,0.00,VWS V14.01,2013-01-30 17:23:00,
2013-01-30 09:28:00,48.1,40.9,30.35,SE,129,4.0,9.0,76,0.00,,---,0.00,VWS V14.01,2013-01-30 17:28:00,
2013-01-30 09:30:00,48.2,41.0,30.35,SW,222,0.0,9.0,76,0.00,,---,0.00,VWS V14.01,2013-01-30 17:30:00,
2013-01-30 09:33:00,48.5,41.3,30.35,SSW,203,0.0,4.0,76,0.00,,---,0.00,VWS V14.01,2013-01-30 17:33:00,
2013-01-30 09:38:00,48.9,41.3,30.35,SSW,195,0.0,4.0,75,0.00,,---,0.00,VWS V14.01,2013-01-30 17:38:00,
2013-01-30 09:40:00,49.0,41.4,30.35,SE,132,1.0,4.0,75,0.00,,---,0.00,VWS V14.01,2013-01-30 17:40:00,
2013-01-30 09:43:00,49.2,41.3,30.35,South,186,0.0,5.0,74,0.00,,---,0.00,VWS V14.01,2013-01-30 17:43:00,
2013-01-30 09:48:00,49.5,41.6,30.36,SSW,203,3.0,5.0,74,0.00,,---,0.00,VWS V14.01,2013-01-30 17:48:00,
2013-01-30 09:50:00,49.6,41.3,30.36,SSW,208,5.0,5.0,73,0.00,,---,0.00,VWS V14.01,2013-01-30 17:50:00,
2013-01-30 09:53:00,50.0,41.7,30.36,SSW,205,2.0,5.0,73,0.00,,---,0.00,VWS V14.01,2013-01-30 17:53:00,
2013-01-30 09:58:00,50.4,41.7,30.36,SW,219,3.0,8.0,72,0.00,,---,0.00,VWS V14.01,2013-01-30 17:58:00,
2013-01-30 10:00:00,50.4,41.7,30.36,SSW,205,3.0,8.0,72,0.00,,---,0.00,VWS V14.01,2013-01-30 18:00:00,
2013-01-30 10:03:00,50.8,41.8,30.36,SSW,212,3.0,6.0,71,0.00,,---,0.00,VWS V14.01,2013-01-30 18:03:00,
2013-01-30 10:08:00,51.0,41.6,30.36,SSW,203,3.0,7.0,70,0.00,,---,0.00,VWS V14.01,2013-01-30 18:08:00,
2013-01-30 10:10:00,51.0,41.6,30.36,SW,229,3.0,7.0,70,0.00,,---,0.00,VWS V14.01,2013-01-30 18:10:00,
2013-01-30 10:13:00,51.2,41.8,30.36,SW,214,0.0,6.0,70,0.00,,---,0.00,VWS V14.01,2013-01-30 18:13:00,
2013-01-30 10:18:00,51.4,42.0,30.36,SSW,207,3.0,9.0,70,0.00,,---,0.00,VWS V14.01,2013-01-30 18:18:00,
2013-01-30 10:20:00,51.4,42.0,30.36,SSW,207,6.0,9.0,70,0.00,,---,0.00,VWS V14.01,2013-01-30 18:20:00,
2013-01-30 10:23:00,51.6,42.2,30.36,SSE,160,1.0,6.0,70,0.00,,---,0.00,VWS V14.01,2013-01-30 18:23:00,
2013-01-30 10:28:00,51.9,42.4,30.36,SW,236,4.0,6.0,70,0.00,,---,0.00,VWS V14.01,2013-01-30 18:28:00,
2013-01-30 10:30:00,52.0,42.2,30.36,SW,218,1.0,6.0,69,0.00,,---,0.00,VWS V14.01,2013-01-30 18:30:00,
2013-01-30 10:33:00,52.2,42.3,30.35,SSW,207,7.0,7.0,69,0.00,,---,0.00,VWS V14.01,2013-01-30 18:33:00,
2013-01-30 10:38:00,52.3,42.1,30.35,South,186,1.0,8.0,68,0.00,,---,0.00,VWS V14.01,2013-01-30 18:38:00,
2013-01-30 10:40:00,52.4,41.8,30.35,SW,215,0.0,8.0,67,0.00,,---,0.00,VWS V14.01,2013-01-30 18:40:00,
2013-01-30 10:43:00,52.6,42.3,30.35,ESE,118,0.0,5.0,68,0.00,,---,0.00,VWS V14.01,2013-01-30 18:43:00,
2013-01-30 10:48:00,52.8,42.2,30.35,SW,222,8.0,9.0,67,0.00,,---,0.00,VWS V14.01,2013-01-30 18:48:00,
2013-01-30 10:50:00,52.9,41.9,30.35,SSW,212,4.0,9.0,66,0.00,,---,0.00,VWS V14.01,2013-01-30 18:50:00,
2013-01-30 10:53:00,52.9,42.3,30.35,SSW,209,2.0,7.0,67,0.00,,---,0.00,VWS V14.01,2013-01-30 18:53:00,
2013-01-30 10:58:00,53.0,42.3,30.35,SW,236,0.0,7.0,67,0.00,,---,0.00,VWS V14.01,2013-01-30 18:58:00,
2013-01-30 11:00:00,53.1,42.5,30.35,SW,222,1.0,7.0,67,0.00,,---,0.00,VWS V14.01,2013-01-30 19:00:00,
2013-01-30 11:03:00,53.4,42.3,30.35,SSW,205,3.0,8.0,66,0.00,,---,0.00,VWS V14.01,2013-01-30 19:03:00,
2013-01-30 11:08:00,53.6,42.5,30.35,South,181,0.0,8.0,66,0.00,,---,0.00,VWS V14.01,2013-01-30 19:08:00,
2013-01-30 11:10:00,53.7,42.6,30.35,SSW,210,4.0,8.0,66,0.00,,---,0.00,VWS V14.01,2013-01-30 19:10:00,
2013-01-30 11:13:00,54.0,42.9,30.35,SSW,211,4.0,5.0,66,0.00,,---,0.00,VWS V14.01,2013-01-30 19:13:00,
2013-01-30 11:18:00,54.2,42.7,30.35,SSW,207,0.0,6.0,65,0.00,,---,0.00,VWS V14.01,2013-01-30 19:18:00,
2013-01-30 11:20:00,54.3,43.2,30.35,WSW,240,5.0,6.0,66,0.00,,---,0.00,VWS V14.01,2013-01-30 19:20:00,
2013-01-30 11:23:00,54.3,42.8,30.34,SW,220,4.0,7.0,65,0.00,,---,0.00,VWS V14.01,2013-01-30 19:23:00,
2013-01-30 11:28:00,54.9,43.0,30.34,SSW,212,2.0,7.0,64,0.00,,---,0.00,VWS V14.01,2013-01-30 19:28:00,
2013-01-30 11:30:00,54.9,43.0,30.34,SSW,211,6.0,7.0,64,0.00,,---,0.00,VWS V14.01,2013-01-30 19:30:00,
2013-01-30 11:33:00,55.0,43.1,30.34,SE,140,1.0,6.0,64,0.00,,---,0.00,VWS V14.01,2013-01-30 19:33:00,
2013-01-30 11:38:00,55.2,43.2,30.34,SW,214,6.0,6.0,64,0.00,,---,0.00,VWS V14.01,2013-01-30 19:38:00,
2013-01-30 11:40:00,55.2,42.8,30.34,WSW,239,4.0,7.0,63,0.00,,---,0.00,VWS V14.01,2013-01-30 19:40:00,
2013-01-30 11:43:00,55.4,43.0,30.34,ESE,119,0.0,5.0,63,0.00,,---,0.00,VWS V14.01,2013-01-30 19:43:00,
2013-01-30 11:48:00,55.8,43.8,30.34,SSE,155,1.0,5.0,64,0.00,,---,0.00,VWS V14.01,2013-01-30 19:48:00,
2013-01-30 11:50:00,55.8,43.4,30.33,SSW,205,4.0,5.0,63,0.00,,---,0.00,VWS V14.01,2013-01-30 19:50:00,
2013-01-30 11:53:00,56.0,44.0,30.33,ESE,109,1.0,5.0,64,0.00,,---,0.00,VWS V14.01,2013-01-30 19:53:00,
2013-01-30 11:58:00,56.3,43.9,30.33,SSW,212,8.0,10.0,63,0.00,,---,0.00,VWS V14.01,2013-01-30 19:58:00,
2013-01-30 12:00:00,56.3,43.0,30.33,SW,229,3.0,10.0,61,0.00,,---,0.00,VWS V14.01,2013-01-30 20:00:00,
2013-01-30 12:03:00,56.1,42.8,30.33,SSW,203,2.0,8.0,61,0.00,,---,0.00,VWS V14.01,2013-01-30 20:03:00,
2013-01-30 12:08:00,56.3,43.9,30.32,SSE,153,1.0,8.0,63,0.00,,---,0.00,VWS V14.01,2013-01-30 20:08:00,
2013-01-30 12:10:00,56.4,44.0,30.32,SSE,160,1.0,8.0,63,0.00,,---,0.00,VWS V14.01,2013-01-30 20:10:00,
2013-01-30 12:13:00,56.8,43.5,30.32,SSW,198,4.0,7.0,61,0.00,,---,0.00,VWS V14.01,2013-01-30 20:13:00,
2013-01-30 12:18:00,56.8,43.5,30.32,East,95,2.0,7.0,61,0.00,,---,0.00,VWS V14.01,2013-01-30 20:18:00,
2013-01-30 12:20:00,56.9,43.6,30.32,WSW,238,1.0,7.0,61,0.00,,---,0.00,VWS V14.01,2013-01-30 20:20:00,
2013-01-30 12:23:00,57.1,43.8,30.31,SW,222,6.0,8.0,61,0.00,,---,0.00,VWS V14.01,2013-01-30 20:23:00,
2013-01-30 12:28:00,57.3,43.5,30.31,SW,214,3.0,8.0,60,0.00,,---,0.00,VWS V14.01,2013-01-30 20:28:00,
2013-01-30 12:30:00,57.3,43.5,30.31,SSW,204,1.0,8.0,60,0.00,,---,0.00,VWS V14.01,2013-01-30 20:30:00,
2013-01-30 12:33:00,57.3,43.5,30.31,SSW,200,0.0,7.0,60,0.00,,---,0.00,VWS V14.01,2013-01-30 20:33:00,
2013-01-30 12:38:00,57.7,43.5,30.31,ESE,122,1.0,7.0,59,0.00,,---,0.00,VWS V14.01,2013-01-30 20:38:00,
2013-01-30 12:40:00,57.8,43.6,30.31,SSW,200,2.0,7.0,59,0.00,,---,0.00,VWS V14.01,2013-01-30 20:40:00,
2013-01-30 12:43:00,58.2,44.0,30.31,SSW,211,3.0,5.0,59,0.00,,---,0.00,VWS V14.01,2013-01-30 20:43:00,
2013-01-30 12:48:00,58.4,43.7,30.31,SSW,211,6.0,7.0,58,0.00,,---,0.00,VWS V14.01,2013-01-30 20:48:00,
2013-01-30 12:50:00,58.4,43.7,30.31,ESE,119,1.0,7.0,58,0.00,,---,0.00,VWS V14.01,2013-01-30 20:50:00,
2013-01-30 12:53:00,58.4,43.7,30.31,SW,229,3.0,7.0,58,0.00,,---,0.00,VWS V14.01,2013-01-30 20:53:00,
2013-01-30 12:58:00,58.4,44.1,30.30,SSW,200,4.0,7.0,59,0.00,,---,0.00,VWS V14.01,2013-01-30 20:58:00,
2013-01-30 13:00:00,58.5,44.2,30.30,South,186,1.0,7.0,59,0.00,,---,0.00,VWS V14.01,2013-01-30 21:00:00,
2013-01-30 13:03:00,58.9,44.6,30.30,SSW,201,2.0,4.0,59,0.00,,---,0.00,VWS V14.01,2013-01-30 21:03:00,
2013-01-30 13:08:00,59.2,44.0,30.30,SSE,153,0.0,8.0,57,0.00,,---,0.00,VWS V14.01,2013-01-30 21:08:00,
2013-01-30 13:10:00,59.3,44.1,30.30,SW,229,4.0,8.0,57,0.00,,---,0.00,VWS V14.01,2013-01-30 21:10:00,
2013-01-30 13:13:00,59.5,43.8,30.30,North,358,2.0,7.0,56,0.00,,---,0.00,VWS V14.01,2013-01-30 21:13:00,
2013-01-30 13:18:00,59.7,44.0,30.29,SW,214,3.0,7.0,56,0.00,,---,0.00,VWS V14.01,2013-01-30 21:18:00,
2013-01-30 13:20:00,59.7,44.0,30.29,ESE,115,1.0,7.0,56,0.00,,---,0.00,VWS V14.01,2013-01-30 21:20:00,
2013-01-30 13:23:00,59.6,43.9,30.29,SSW,201,1.0,7.0,56,0.00,,---,0.00,VWS V14.01,2013-01-30 21:23:00,
2013-01-30 13:28:00,59.6,43.9,30.29,SE,140,1.0,7.0,56,0.00,,---,0.00,VWS V14.01,2013-01-30 21:28:00,
2013-01-30 13:30:00,59.5,43.8,30.29,East,99,0.0,7.0,56,0.00,,---,0.00,VWS V14.01,2013-01-30 21:30:00,
2013-01-30 13:33:00,59.6,43.9,30.29,SSW,213,1.0,7.0,56,0.00,,---,0.00,VWS V14.01,2013-01-30 21:33:00,
2013-01-30 13:38:00,60.0,43.8,30.29,SW,219,4.0,7.0,55,0.00,,---,0.00,VWS V14.01,2013-01-30 21:38:00,
2013-01-30 13:40:00,60.0,43.8,30.29,South,187,1.0,7.0,55,0.00,,---,0.00,VWS V14.01,2013-01-30 21:40:00,
2013-01-30 13:43:00,60.1,43.9,30.29,WSW,240,2.0,6.0,55,0.00,,---,0.00,VWS V14.01,2013-01-30 21:43:00,
2013-01-30 13:48:00,60.5,44.3,30.28,SW,235,4.0,8.0,55,0.00,,---,0.00,VWS V14.01,2013-01-30 21:48:00,
2013-01-30 13:50:00,60.5,44.3,30.28,SW,226,4.0,8.0,55,0.00,,---,0.00,VWS V14.01,2013-01-30 21:50:00,
2013-01-30 13:53:00,60.7,44.5,30.28,SSW,201,4.0,4.0,55,0.00,,---,0.00,VWS V14.01,2013-01-30 21:53:00,
2013-01-30 13:58:00,60.6,43.9,30.28,West,278,1.0,6.0,54,0.00,,---,0.00,VWS V14.01,2013-01-30 21:58:00,
2013-01-30 14:00:00,60.7,44.5,30.28,SSE,154,2.0,6.0,55,0.00,,---,0.00,VWS V14.01,2013-01-30 22:00:00,
2013-01-30 14:03:00,60.8,43.6,30.28,SW,229,1.0,4.0,53,0.00,,---,0.00,VWS V14.01,2013-01-30 22:03:00,
2013-01-30 14:08:00,61.0,44.7,30.28,SSW,200,1.0,4.0,55,0.00,,---,0.00,VWS V14.01,2013-01-30 22:08:00,
2013-01-30 14:10:00,61.2,44.9,30.28,SSW,211,0.0,4.0,55,0.00,,---,0.00,VWS V14.01,2013-01-30 22:10:00,
2013-01-30 14:13:00,61.7,44.9,30.28,South,191,1.0,2.0,54,0.00,,---,0.00,VWS V14.01,2013-01-30 22:13:00,
2013-01-30 14:18:00,61.7,44.9,30.28,East,89,1.0,5.0,54,0.00,,---,0.00,VWS V14.01,2013-01-30 22:18:00,
2013-01-30 14:20:00,61.6,45.3,30.28,South,174,0.0,5.0,55,0.00,,---,0.00,VWS V14.01,2013-01-30 22:20:00,
2013-01-30 14:23:00,61.5,44.7,30.28,ENE,63,0.0,3.0,54,0.00,,---,0.00,VWS V14.01,2013-01-30 22:23:00,
2013-01-30 14:28:00,61.8,45.0,30.28,ESE,106,2.0,5.0,54,0.00,,---,0.00,VWS V14.01,2013-01-30 22:28:00,
2013-01-30 14:30:00,61.8,44.5,30.28,SSW,208,4.0,5.0,53,0.00,,---,0.00,VWS V14.01,2013-01-30 22:30:00,
2013-01-30 14:33:00,61.9,44.1,30.28,SSW,205,1.0,5.0,52,0.00,,---,0.00,VWS V14.01,2013-01-30 22:33:00,
2013-01-30 14:38:00,62.2,44.9,30.28,SSE,163,1.0,5.0,53,0.00,,---,0.00,VWS V14.01,2013-01-30 22:38:00,
2013-01-30 14:40:00,62.4,44.6,30.28,ESE,122,1.0,5.0,52,0.00,,---,0.00,VWS V14.01,2013-01-30 22:40:00,
2013-01-30 14:43:00,62.4,45.1,30.28,ESE,110,1.0,6.0,53,0.00,,---,0.00,VWS V14.01,2013-01-30 22:43:00,
2013-01-30 14:48:00,61.9,44.6,30.28,ENE,77,0.0,6.0,53,0.00,,---,0.00,VWS V14.01,2013-01-30 22:48:00,
2013-01-30 14:50:00,61.8,44.5,30.28,West,262,1.0,6.0,53,0.00,,---,0.00,VWS V14.01,2013-01-30 22:50:00,
2013-01-30 14:53:00,61.6,44.8,30.27,SSW,210,2.0,4.0,54,0.00,,---,0.00,VWS V14.01,2013-01-30 22:53:00,
2013-01-30 14:58:00,62.1,44.3,30.27,SW,214,5.0,5.0,52,0.00,,---,0.00,VWS V14.01,2013-01-30 22:58:00,
2013-01-30 15:00:00,62.0,44.2,30.27,SSW,212,3.0,6.0,52,0.00,,---,0.00,VWS V14.01,2013-01-30 23:00:00,
2013-01-30 15:03:00,61.7,43.9,30.27,SSW,209,2.0,5.0,52,0.00,,---,0.00,VWS V14.01,2013-01-30 23:03:00,
2013-01-30 15:08:00,61.8,44.5,30.27,SSE,152,1.0,5.0,53,0.00,,---,0.00,VWS V14.01,2013-01-30 23:08:00,
2013-01-30 15:10:00,61.8,44.5,30.27,SSW,210,2.0,5.0,53,0.00,,---,0.00,VWS V14.01,2013-01-30 23:10:00,
2013-01-30 15:13:00,61.7,44.9,30.27,SSW,201,0.0,5.0,54,0.00,,---,0.00,VWS V14.01,2013-01-30 23:13:00,
2013-01-30 15:18:00,61.5,44.2,30.27,WSW,253,2.0,7.0,53,0.00,,---,0.00,VWS V14.01,2013-01-30 23:18:00,
2013-01-30 15:20:00,61.3,44.5,30.27,SW,236,3.0,7.0,54,0.00,,---,0.00,VWS V14.01,2013-01-30 23:20:00,
2013-01-30 15:23:00,61.1,44.3,30.27,SW,215,3.0,7.0,54,0.00,,---,0.00,VWS V14.01,2013-01-30 23:23:00,
2013-01-30 15:28:00,61.2,44.9,30.27,South,174,1.0,7.0,55,0.00,,---,0.00,VWS V14.01,2013-01-30 23:28:00,
2013-01-30 15:30:00,61.4,45.1,30.27,SW,214,4.0,7.0,55,0.00,,---,0.00,VWS V14.01,2013-01-30 23:30:00,
2013-01-30 15:33:00,61.5,44.7,30.27,SSW,205,2.0,8.0,54,0.00,,---,0.00,VWS V14.01,2013-01-30 23:33:00,
2013-01-30 15:38:00,61.8,45.0,30.27,SW,221,1.0,8.0,54,0.00,,---,0.00,VWS V14.01,2013-01-30 23:38:00,
2013-01-30 15:40:00,61.9,45.1,30.27,SSW,208,2.0,8.0,54,0.00,,---,0.00,VWS V14.01,2013-01-30 23:40:00,
2013-01-30 15:43:00,61.8,44.5,30.27,SW,219,4.0,8.0,53,0.00,,---,0.00,VWS V14.01,2013-01-30 23:43:00,
2013-01-30 15:48:00,61.7,44.9,30.27,SSW,211,2.0,8.0,54,0.00,,---,0.00,VWS V14.01,2013-01-30 23:48:00,
2013-01-30 15:50:00,61.7,45.4,30.27,South,170,1.0,8.0,55,0.00,,---,0.00,VWS V14.01,2013-01-30 23:50:00,
2013-01-30 15:53:00,61.6,44.8,30.27,SSE,148,1.0,3.0,54,0.00,,---,0.00,VWS V14.01,2013-01-30 23:53:00,
2013-01-30 15:58:00,61.5,44.7,30.26,SE,140,0.0,6.0,54,0.00,,---,0.00,VWS V14.01,2013-01-30 23:58:00,
2013-01-30 16:00:00,61.6,44.8,30.26,SE,139,0.0,6.0,54,0.00,,---,0.00,VWS V14.01,2013-01-31 00:00:00,
2013-01-30 16:03:00,61.9,45.1,30.26,SSW,209,1.0,4.0,54,0.00,,---,0.00,VWS V14.01,2013-01-31 00:03:00,
2013-01-30 16:08:00,62.0,45.2,30.26,SW,214,1.0,4.0,54,0.00,,---,0.00,VWS V14.01,2013-01-31 00:08:00,
2013-01-30 16:10:00,62.1,45.3,30.26,SSE,162,0.0,4.0,54,0.00,,---,0.00,VWS V14.01,2013-01-31 00:10:00,
2013-01-30 16:13:00,62.1,45.3,30.26,SSE,156,1.0,5.0,54,0.00,,---,0.00,VWS V14.01,2013-01-31 00:13:00,
2013-01-30 16:18:00,62.0,45.2,30.26,SW,214,3.0,5.0,54,0.00,,---,0.00,VWS V14.01,2013-01-31 00:18:00,
2013-01-30 16:20:00,62.0,45.2,30.26,SSW,208,1.0,5.0,54,0.00,,---,0.00,VWS V14.01,2013-01-31 00:20:00,
2013-01-30 16:23:00,61.8,45.0,30.26,SSW,210,6.0,7.0,54,0.00,,---,0.00,VWS V14.01,2013-01-31 00:23:00,
2013-01-30 16:28:00,61.5,44.7,30.26,South,183,2.0,7.0,54,0.00,,---,0.00,VWS V14.01,2013-01-31 00:28:00,
2013-01-30 16:30:00,61.3,44.5,30.26,SSW,198,3.0,7.0,54,0.00,,---,0.00,VWS V14.01,2013-01-31 00:30:00,
2013-01-30 16:33:00,61.0,44.7,30.26,SSW,212,2.0,5.0,55,0.00,,---,0.00,VWS V14.01,2013-01-31 00:33:00,
2013-01-30 16:38:00,60.9,44.6,30.26,SSW,203,3.0,5.0,55,0.00,,---,0.00,VWS V14.01,2013-01-31 00:38:00,
2013-01-30 16:40:00,60.8,44.5,30.26,SSW,204,2.0,6.0,55,0.00,,---,0.00,VWS V14.01,2013-01-31 00:40:00,
2013-01-30 16:43:00,60.5,44.7,30.27,SSW,207,1.0,5.0,56,0.00,,---,0.00,VWS V14.01,2013-01-31 00:43:00,
2013-01-30 16:48:00,60.4,44.7,30.27,SSW,207,0.0,5.0,56,0.00,,---,0.00,VWS V14.01,2013-01-31 00:48:00,
2013-01-30 16:50:00,60.4,44.7,30.27,SSW,211,4.0,5.0,56,0.00,,---,0.00,VWS V14.01,2013-01-31 00:50:00,
2013-01-30 16:53:00,60.2,44.5,30.27,SSW,210,0.0,4.0,56,0.00,,---,0.00,VWS V14.01,2013-01-31 00:53:00,
2013-01-30 16:58:00,60.1,44.8,30.27,SSW,209,1.0,4.0,57,0.00,,---,0.00,VWS V14.01,2013-01-31 00:58:00,
2013-01-30 17:00:00,60.0,44.7,30.27,SW,215,1.0,4.0,57,0.00,,---,0.00,VWS V14.01,2013-01-31 01:00:00,
2013-01-30 17:03:00,59.9,44.7,30.27,SW,222,0.0,2.0,57,0.00,,---,0.00,VWS V14.01,2013-01-31 01:03:00,
2013-01-30 17:08:00,59.4,44.6,30.27,SW,217,0.0,3.0,58,0.00,,---,0.00,VWS V14.01,2013-01-31 01:08:00,
2013-01-30 17:10:00,59.3,44.5,30.27,SW,217,0.0,3.0,58,0.00,,---,0.00,VWS V14.01,2013-01-31 01:10:00,
2013-01-30 17:13:00,59.0,44.7,30.27,SW,217,0.0,0.0,59,0.00,,---,0.00,VWS V14.01,2013-01-31 01:13:00,
2013-01-30 17:18:00,58.5,44.2,30.27,SW,217,0.0,1.0,59,0.00,,---,0.00,VWS V14.01,2013-01-31 01:18:00,
2013-01-30 17:20:00,58.4,44.2,30.27,SW,217,0.0,1.0,59,0.00,,---,0.00,VWS V14.01,2013-01-31 01:20:00,
2013-01-30 17:23:00,58.0,44.2,30.27,SW,217,0.0,0.0,60,0.00,,---,0.00,VWS V14.01,2013-01-31 01:23:00,
2013-01-30 17:28:00,57.4,44.1,30.27,SW,217,0.0,0.0,61,0.00,,---,0.00,VWS V14.01,2013-01-31 01:28:00,
2013-01-30 17:30:00,57.2,43.9,30.27,SW,217,0.0,0.0,61,0.00,,---,0.00,VWS V14.01,2013-01-31 01:30:00,
2013-01-30 17:33:00,56.8,43.9,30.27,SW,217,0.0,0.0,62,0.00,,---,0.00,VWS V14.01,2013-01-31 01:33:00,
2013-01-30 17:38:00,56.2,43.8,30.27,SW,217,0.0,0.0,63,0.00,,---,0.00,VWS V14.01,2013-01-31 01:38:00,
2013-01-30 17:40:00,56.1,43.7,30.27,SW,217,0.0,0.0,63,0.00,,---,0.00,VWS V14.01,2013-01-31 01:40:00,
2013-01-30 17:43:00,55.6,43.6,30.27,SW,217,0.0,0.0,64,0.00,,---,0.00,VWS V14.01,2013-01-31 01:43:00,
2013-01-30 17:48:00,55.1,43.6,30.27,SW,217,0.0,0.0,65,0.00,,---,0.00,VWS V14.01,2013-01-31 01:48:00,
2013-01-30 17:50:00,55.0,43.5,30.27,SW,217,0.0,0.0,65,0.00,,---,0.00,VWS V14.01,2013-01-31 01:50:00,
2013-01-30 17:53:00,54.5,43.4,30.27,SW,217,0.0,0.0,66,0.00,,---,0.00,VWS V14.01,2013-01-31 01:53:00,
2013-01-30 17:58:00,54.0,43.7,30.27,SW,217,0.0,0.0,68,0.00,,---,0.00,VWS V14.01,2013-01-31 01:58:00,
2013-01-30 18:00:00,53.9,43.6,30.27,SW,217,0.0,0.0,68,0.00,,---,0.00,VWS V14.01,2013-01-31 02:00:00,
2013-01-30 18:03:00,53.6,43.7,30.27,SW,217,0.0,0.0,69,0.00,,---,0.00,VWS V14.01,2013-01-31 02:03:00,
2013-01-30 18:08:00,53.0,43.1,30.27,SW,217,0.0,0.0,69,0.00,,---,0.00,VWS V14.01,2013-01-31 02:08:00,
2013-01-30 18:10:00,52.9,43.0,30.27,SW,217,0.0,0.0,69,0.00,,---,0.00,VWS V14.01,2013-01-31 02:10:00,
2013-01-30 18:19:00,52.2,43.1,30.27,SW,217,0.0,0.0,71,0.00,,---,0.00,VWS V14.01,2013-01-31 02:19:00,
2013-01-30 18:20:00,52.2,43.1,30.27,SW,217,0.0,0.0,71,0.00,,---,0.00,VWS V14.01,2013-01-31 02:20:00,
2013-01-30 18:29:00,51.5,43.5,30.28,SW,217,0.0,0.0,74,0.00,,---,0.00,VWS V14.01,2013-01-31 02:29:00,
2013-01-30 18:30:00,51.5,43.5,30.28,SW,217,0.0,0.0,74,0.00,,---,0.00,VWS V14.01,2013-01-31 02:30:00,
2013-01-30 18:39:00,50.8,43.5,30.28,SW,217,0.0,0.0,76,0.00,,---,0.00,VWS V14.01,2013-01-31 02:39:00,
2013-01-30 18:40:00,50.8,43.5,30.28,SW,217,0.0,0.0,76,0.00,,---,0.00,VWS V14.01,2013-01-31 02:40:00,
2013-01-30 18:49:00,50.2,43.3,30.28,SW,217,0.0,0.0,77,0.00,,---,0.00,VWS V14.01,2013-01-31 02:49:00,
2013-01-30 18:50:00,50.2,43.3,30.28,SW,217,0.0,0.0,77,0.00,,---,0.00,VWS V14.01,2013-01-31 02:50:00,
2013-01-30 18:59:00,49.6,43.0,30.27,SW,217,0.0,0.0,78,0.00,,---,0.00,VWS V14.01,2013-01-31 02:59:00,
2013-01-30 19:00:00,49.6,43.0,30.27,SW,217,0.0,0.0,78,0.00,,---,0.00,VWS V14.01,2013-01-31 03:00:00,
2013-01-30 19:09:00,49.0,42.8,30.27,SW,217,0.0,0.0,79,0.00,,---,0.00,VWS V14.01,2013-01-31 03:09:00,
2013-01-30 19:10:00,49.0,42.8,30.27,SW,217,0.0,0.0,79,0.00,,---,0.00,VWS V14.01,2013-01-31 03:10:00,
2013-01-30 19:19:00,48.5,42.6,30.27,SW,217,0.0,0.0,80,0.00,,---,0.00,VWS V14.01,2013-01-31 03:19:00,
2013-01-30 19:20:00,48.5,42.6,30.27,SW,217,0.0,0.0,80,0.00,,---,0.00,VWS V14.01,2013-01-31 03:20:00,
2013-01-30 19:29:00,47.9,42.4,30.27,SW,217,0.0,0.0,81,0.00,,---,0.00,VWS V14.01,2013-01-31 03:29:00,
2013-01-30 19:30:00,47.9,42.4,30.27,SW,217,0.0,0.0,81,0.00,,---,0.00,VWS V14.01,2013-01-31 03:30:00,
2013-01-30 19:39:00,47.6,42.7,30.27,SW,217,0.0,0.0,83,0.00,,---,0.00,VWS V14.01,2013-01-31 03:39:00,
2013-01-30 19:40:00,47.6,42.7,30.27,SW,217,0.0,0.0,83,0.00,,---,0.00,VWS V14.01,2013-01-31 03:40:00,
2013-01-30 19:49:00,47.3,42.4,30.27,SW,217,0.0,0.0,83,0.00,,---,0.00,VWS V14.01,2013-01-31 03:49:00,
2013-01-30 19:50:00,47.3,42.4,30.27,SW,217,0.0,0.0,83,0.00,,---,0.00,VWS V14.01,2013-01-31 03:50:00,
2013-01-30 19:59:00,46.8,41.9,30.27,SW,217,0.0,0.0,83,0.00,,---,0.00,VWS V14.01,2013-01-31 03:59:00,
2013-01-30 20:00:00,46.8,41.9,30.27,SW,217,0.0,0.0,83,0.00,,---,0.00,VWS V14.01,2013-01-31 04:00:00,
2013-01-30 20:09:00,46.3,41.7,30.27,SW,217,0.0,0.0,84,0.00,,---,0.00,VWS V14.01,2013-01-31 04:09:00,
2013-01-30 20:10:00,46.3,41.7,30.27,SW,217,0.0,0.0,84,0.00,,---,0.00,VWS V14.01,2013-01-31 04:10:00,
2013-01-30 20:19:00,45.7,41.5,30.27,SW,217,0.0,0.0,85,0.00,,---,0.00,VWS V14.01,2013-01-31 04:19:00,
2013-01-30 20:20:00,43.9,40.9,30.28,SW,217,0.0,0.0,89,0.00,,---,0.00,VWS V14.01,2013-01-31 04:20:00,
2013-01-30 20:29:00,45.3,41.4,30.27,SW,217,0.0,0.0,86,0.00,,---,0.00,VWS V14.01,2013-01-31 04:29:00,
2013-01-30 20:30:00,43.9,40.9,30.28,SW,217,0.0,0.0,89,0.00,,---,0.00,VWS V14.01,2013-01-31 04:30:00,
2013-01-30 20:39:00,45.1,41.5,30.27,SW,217,0.0,0.0,87,0.00,,---,0.00,VWS V14.01,2013-01-31 04:39:00,
2013-01-30 20:40:00,45.1,41.5,30.27,SW,217,0.0,0.0,87,0.00,,---,0.00,VWS V14.01,2013-01-31 04:40:00,
2013-01-30 20:49:00,44.9,41.3,30.27,SW,217,0.0,0.0,87,0.00,,---,0.00,VWS V14.01,2013-01-31 04:49:00,
2013-01-30 20:50:00,44.9,41.3,30.27,SW,217,0.0,0.0,87,0.00,,---,0.00,VWS V14.01,2013-01-31 04:50:00,
2013-01-30 20:59:00,44.5,40.9,30.28,SW,217,0.0,0.0,87,0.00,,---,0.00,VWS V14.01,2013-01-31 04:59:00,
2013-01-30 21:00:00,43.1,40.4,30.28,SW,217,0.0,0.0,90,0.00,,---,0.00,VWS V14.01,2013-01-31 05:00:00,
2013-01-30 21:09:00,44.1,40.8,30.28,SW,217,0.0,0.0,88,0.00,,---,0.00,VWS V14.01,2013-01-31 05:09:00,
2013-01-30 21:10:00,42.9,40.2,30.28,SW,217,0.0,0.0,90,0.00,,---,0.00,VWS V14.01,2013-01-31 05:10:00,
2013-01-30 21:19:00,43.9,40.9,30.28,SW,217,0.0,0.0,89,0.00,,---,0.00,VWS V14.01,2013-01-31 05:19:00,
2013-01-30 21:20:00,42.7,40.3,30.28,SW,217,0.0,0.0,91,0.00,,---,0.00,VWS V14.01,2013-01-31 05:20:00,
2013-01-30 21:29:00,43.9,40.9,30.28,SW,217,0.0,0.0,89,0.00,,---,0.00,VWS V14.01,2013-01-31 05:29:00,
2013-01-30 21:30:00,43.9,40.9,30.28,SW,217,0.0,0.0,89,0.00,,---,0.00,VWS V14.01,2013-01-31 05:30:00,
2013-01-30 21:39:00,43.6,40.6,30.28,SW,217,0.0,0.0,89,0.00,,---,0.00,VWS V14.01,2013-01-31 05:39:00,
2013-01-30 21:40:00,43.6,40.6,30.28,SW,217,0.0,0.0,89,0.00,,---,0.00,VWS V14.01,2013-01-31 05:40:00,
2013-01-30 21:49:00,43.4,40.7,30.29,SW,217,0.0,0.0,90,0.00,,---,0.00,VWS V14.01,2013-01-31 05:49:00,
2013-01-30 21:50:00,42.4,40.0,30.28,SW,217,0.0,0.0,91,0.00,,---,0.00,VWS V14.01,2013-01-31 05:50:00,
2013-01-30 21:59:00,43.1,40.4,30.28,SW,217,0.0,0.0,90,0.00,,---,0.00,VWS V14.01,2013-01-31 05:59:00,
2013-01-30 22:00:00,42.0,39.6,30.29,SW,217,0.0,0.0,91,0.00,,---,0.00,VWS V14.01,2013-01-31 06:00:00,
2013-01-30 22:09:00,42.9,40.2,30.28,SW,217,0.0,0.0,90,0.00,,---,0.00,VWS V14.01,2013-01-31 06:09:00,
2013-01-30 22:10:00,42.9,40.2,30.28,SW,217,0.0,0.0,90,0.00,,---,0.00,VWS V14.01,2013-01-31 06:10:00,
2013-01-30 22:19:00,42.7,40.3,30.28,SW,217,0.0,0.0,91,0.00,,---,0.00,VWS V14.01,2013-01-31 06:19:00,
2013-01-30 22:20:00,42.7,40.3,30.28,SW,217,0.0,0.0,91,0.00,,---,0.00,VWS V14.01,2013-01-31 06:20:00,
2013-01-30 22:29:00,42.7,40.3,30.28,SW,217,0.0,0.0,91,0.00,,---,0.00,VWS V14.01,2013-01-31 06:29:00,
2013-01-30 22:30:00,42.7,40.3,30.28,SW,217,0.0,0.0,91,0.00,,---,0.00,VWS V14.01,2013-01-31 06:30:00,
2013-01-30 22:39:00,42.7,40.3,30.28,SW,217,0.0,0.0,91,0.00,,---,0.00,VWS V14.01,2013-01-31 06:39:00,
2013-01-30 22:40:00,42.7,40.3,30.28,SW,217,0.0,0.0,91,0.00,,---,0.00,VWS V14.01,2013-01-31 06:40:00,
2013-01-30 22:49:00,42.4,40.0,30.28,SW,217,0.0,0.0,91,0.00,,---,0.00,VWS V14.01,2013-01-31 06:49:00,
2013-01-30 22:50:00,42.4,40.0,30.28,SW,217,0.0,0.0,91,0.00,,---,0.00,VWS V14.01,2013-01-31 06:50:00,
2013-01-30 22:59:00,42.0,39.6,30.29,SW,217,0.0,0.0,91,0.00,,---,0.00,VWS V14.01,2013-01-31 06:59:00,
2013-01-30 23:00:00,42.0,39.6,30.29,SW,217,0.0,0.0,91,0.00,,---,0.00,VWS V14.01,2013-01-31 07:00:00,
2013-01-30 23:09:00,41.6,39.2,30.29,SW,217,0.0,0.0,91,0.00,,---,0.00,VWS V14.01,2013-01-31 07:09:00,
2013-01-30 23:10:00,41.6,39.2,30.29,SW,217,0.0,0.0,91,0.00,,---,0.00,VWS V14.01,2013-01-31 07:10:00,
2013-01-30 23:19:00,41.4,39.2,30.29,SW,217,0.0,0.0,92,0.00,,---,0.00,VWS V14.01,2013-01-31 07:19:00,
2013-01-30 23:20:00,41.4,39.3,30.29,SW,217,0.0,0.0,92,0.00,,---,0.00,VWS V14.01,2013-01-31 07:20:00,
2013-01-30 23:29:00,41.3,39.2,30.29,SW,217,0.0,0.0,92,0.00,,---,0.00,VWS V14.01,2013-01-31 07:29:00,
2013-01-30 23:30:00,41.3,39.2,30.29,SW,217,0.0,0.0,92,0.00,,---,0.00,VWS V14.01,2013-01-31 07:30:00,
2013-01-30 23:39:00,41.2,39.1,30.29,SW,217,0.0,0.0,92,0.00,,---,0.00,VWS V14.01,2013-01-31 07:39:00,
2013-01-30 23:40:00,41.2,39.1,30.29,SW,217,0.0,0.0,92,0.00,,---,0.00,VWS V14.01,2013-01-31 07:40:00,
2013-01-30 23:49:00,41.0,38.9,30.29,SW,217,0.0,0.0,92,0.00,,---,0.00,VWS V14.01,2013-01-31 07:49:00,
2013-01-30 23:50:00,41.0,38.9,30.29,SW,217,0.0,0.0,92,0.00,,---,0.00,VWS V14.01,2013-01-31 07:50:00,
2013-01-30 23:59:00,40.8,38.9,30.30,SW,217,0.0,0.0,93,0.00,,---,0.00,VWS V14.01,2013-01-31 07:59:00,